Weather History for KTDZ - April, 2013

Change the Weather History Date:

Tuesday, April 2, 2013

  Actual Average (KTOL) Record (KTOL)
Temperature  
Mean Temperature 32 °F 44 °F  
Max Temperature 45 °F 54 °F 82 °F (1963)
Min Temperature 21 °F 34 °F 19 °F (1881)
Degree Days  
Heating Degree Days 32 21  
Month to date heating degree days 42  
Since 1 July heating degree days 5468  
Cooling Degree Days 0 0  
Month to date cooling degree days 0  
Year to date cooling degree days 0  
Moisture  
Dew Point 12 °F    
Average Humidity 46    
Maximum Humidity 72    
Minimum Humidity 27    
Precipitation  
Precipitation 0.00 in 0.10 in - ()
Month to date precipitation 0.20  
Year to date precipitation 6.80  
Snow  
Snow 0.00 in 0.10 in - ()
Month to date snowfall 0.2  
Since 1 July snowfall 36.4  
Snow Depth -    
Sea Level Pressure  
Sea Level Pressure 30.20 in    
Wind  
Wind Speed 9 mph (West)    
Max Wind Speed 21 mph    
Max Gust Speed 28 mph    
Visibility 10 miles    
Events      
T = Trace of Precipitation, MM = Missing Value Source: NWS Daily Summary

Daily Weather History Graph

Daily Weather History Graph

Search for Another Location

Airport or City:

Trip Planner

Search our weather history database for the weather conditions in past years. The results will help you decide how hot, cold, wet, or windy it might be!

Date:

Astronomy

Apr. 02, 2013 Rise Set
Actual Time 7:14 AM EDT 8:00 PM EDT
Civil Twilight 6:46 AM EDT 8:28 PM EDT
Nautical Twilight 6:13 AM EDT 9:01 PM EDT
Astronomical Twilight 5:39 AM EDT 9:36 PM EDT
Moon 2:07 AM EDT (4/2) 12:01 PM EDT (4/2)
Length of Visible Light 13h 41m
Length of Day
12h 45m
Waning Gibbous, 56% of the Moon is Illuminated
Apr 2
Waning Gibbous
Apr 3
Last Quarter
Apr 10
New
Apr 18
First Quarter
Apr 25
Full

Hourly Weather History & Observations

Time (EDT) Temp. Windchill Dew Point Humidity Pressure Visibility Wind Dir Wind Speed Gust Speed Precip Events Conditions
12:53 AM 25.0 °F 17.1 °F 12.0 °F 58% 30.15 in 10.0 mi WNW 6.9 mph - N/A   Clear
1:53 AM 21.9 °F 15.7 °F 12.0 °F 66% 30.15 in 10.0 mi West 4.6 mph - N/A   Clear
2:53 AM 23.0 °F 17.0 °F 12.0 °F 63% 30.15 in 10.0 mi WSW 4.6 mph - N/A   Clear
3:53 AM 23.0 °F 17.0 °F 12.0 °F 63% 30.15 in 10.0 mi WSW 4.6 mph - N/A   Clear
4:53 AM 21.9 °F 15.7 °F 12.9 °F 68% 30.15 in 10.0 mi WSW 4.6 mph - N/A   Clear
5:53 AM 21.0 °F 14.6 °F 12.9 °F 71% 30.16 in 10.0 mi WSW 4.6 mph - N/A   Clear
6:53 AM 21.9 °F 15.7 °F 14.0 °F 72% 30.18 in 10.0 mi WSW 4.6 mph - N/A   Clear
7:53 AM 25.0 °F 17.1 °F 17.1 °F 72% 30.21 in 10.0 mi West 6.9 mph - N/A   Clear
8:53 AM 28.0 °F 18.6 °F 19.0 °F 69% 30.23 in 10.0 mi West 10.4 mph - N/A   Clear
9:53 AM 32.0 °F 22.5 °F 10.9 °F 42% 30.23 in 10.0 mi NW 12.7 mph - N/A   Clear
10:53 AM 35.1 °F 25.9 °F 9.0 °F 34% 30.24 in 10.0 mi West 13.8 mph 19.6 mph N/A   Clear
11:53 AM 36.0 °F 26.7 °F 10.0 °F 34% 30.24 in 10.0 mi WNW 15.0 mph 21.9 mph N/A   Partly Cloudy
12:53 PM 39.0 °F 30.3 °F 10.9 °F 32% 30.22 in 10.0 mi West 16.1 mph 23.0 mph N/A   Mostly Cloudy
1:53 PM 41.0 °F 32.8 °F 10.9 °F 29% 30.20 in 10.0 mi West 16.1 mph 24.2 mph N/A   Mostly Cloudy
2:53 PM 41.0 °F 31.6 °F 12.0 °F 31% 30.20 in 10.0 mi West 20.7 mph 25.3 mph N/A   Mostly Cloudy
3:53 PM 41.0 °F 33.1 °F 12.0 °F 31% 30.18 in 10.0 mi West 15.0 mph 25.3 mph N/A   Overcast
4:53 PM 44.1 °F 36.8 °F 12.0 °F 27% 30.16 in 10.0 mi West 16.1 mph 25.3 mph N/A   Mostly Cloudy
5:53 PM 43.0 °F 35.4 °F 10.9 °F 27% 30.17 in 10.0 mi NW 16.1 mph - N/A   Mostly Cloudy
6:53 PM 42.1 °F 33.1 °F 10.0 °F 27% 30.18 in 10.0 mi West 20.7 mph 27.6 mph N/A   Overcast
7:53 PM 39.0 °F 29.9 °F 10.0 °F 30% 30.20 in 10.0 mi WNW 17.3 mph - N/A   Partly Cloudy
8:53 PM 37.0 °F 28.5 °F 10.0 °F 33% 30.22 in 10.0 mi WNW 13.8 mph - N/A   Clear
9:53 PM 34.0 °F 25.0 °F 10.9 °F 38% 30.25 in 10.0 mi WNW 12.7 mph - N/A   Clear
10:53 PM 32.0 °F 23.6 °F 12.0 °F 44% 30.27 in 10.0 mi WNW 10.4 mph - N/A   Clear
11:53 PM 28.9 °F 20.4 °F 10.9 °F 47% 30.27 in 10.0 mi NW 9.2 mph - N/A   Clear